Find Starlink 34774

NORAD ID: 66485 Int'l Des: 2025-263 Owner: SPXS Country: US Constellation: starlink operational
LEOCIRCULAR

現在のビュー

3D地球を読み込み中...

About Starlink 34774

Starlink 34774 (NORAD 66485) is a starlink constellation satellite (v2 mini) launched Nov 15, 2025 by SPXS of US. It operates in LEO, CIRCULAR orbit with a mass of 575.00 kg.

次回通過

Passes for default location (London). Set your location on the main map for personalized predictions.

高度履歴

Loading altitude history...

軌道要素

1 66485U 25263A 26237.91927302 .00015604 00000-0 57520-3 0 9998
2 66485 43.0025 114.7007 0001355 249.5235 110.5471 15.27590075 44782
Epoch: Aug 25, 2026 • Age: 13 hours

現在のステータス

高度 484.1 km
遠地点 / 近地点 N/A
速度 7.63 km/s
衛星直下点 30.74°N, 109.67°E
打ち上げ日 Nov 15, 2025
運用期間 0.7 years
タイプ internet

技術仕様

分類 Payload
質量 575.00 kg
乾燥質量 530.00 kg
総質量 575.00 kg
長さ 0.30 m
直径 4.10 m
スパン 29.00 m
形状 Box + pan
製造者 SPXS
バスタイプ Starlink V2MO
フェーズステータス In Orbit
所有者/国 SPXS/US

Most Searched